Location: Chapleau
(47.8423°N, 83.4026°W)
Time: 16:18:19
(UTC-04:00)

ISS - Visible Passes

Search period start: 30 April 2025 00:00
Search period end: 10 May 2025 00:00
Orbit: 417 x 420 km, 51.6° (Epoch: 29 April)

Date Brightness Start Highest point End Pass type
(mag) Time Alt. Az. Time Alt. Az. Time Alt. Az.
30 Apr -2.4 03:12:11 35° ENE 03:12:11 35° ENE 03:14:17 10° ENE visible
30 Apr -2.7 04:45:06 13° WNW 04:47:54 43° N 04:51:09 10° ENE visible
01 May -1.0 02:25:54 14° ENE 02:25:54 14° ENE 02:26:25 10° ENE visible
01 May -2.9 03:58:49 32° WNW 03:59:58 48° N 04:03:15 10° ENE visible
01 May -2.7 05:33:52 10° WNW 05:37:08 46° N 05:40:23 10° E visible
02 May -2.9 03:12:30 51° NNE 03:12:30 51° NNE 03:15:21 10° ENE visible
02 May -2.6 04:45:56 10° WNW 04:49:09 42° N 04:52:23 10° ENE visible
03 May -1.5 02:26:09 22° ENE 02:26:09 22° ENE 02:27:27 10° ENE visible
03 May -2.6 03:59:04 18° WNW 04:01:09 41° N 04:04:23 10° ENE visible
03 May -3.4 05:34:53 10° WNW 05:38:15 69° NNE 05:41:36 10° ESE visible
04 May -2.7 03:12:41 40° NNW 03:13:08 43° N 03:16:22 10° ENE visible
04 May -3.0 04:46:58 10° WNW 04:50:16 54° NNE 04:53:35 10° E visible
05 May -2.0 02:26:17 31° NE 02:26:17 31° NE 02:28:22 10° ENE visible
05 May -2.7 03:59:11 11° WNW 04:02:14 46° N 04:05:30 10° E visible
06 May -0.9 01:39:54 13° ENE 01:39:54 13° ENE 01:40:22 10° ENE visible
06 May -2.5 03:12:48 27° NW 03:14:10 42° N 03:17:23 10° ENE visible
06 May -3.8 04:47:48 10° WNW 04:51:10 90° SSW 04:54:32 10° ESE visible
07 May -2.4 02:26:28 39° NNE 02:26:28 39° NNE 02:29:16 10° ENE visible
07 May -3.5 03:59:47 10° WNW 04:03:09 68° NNE 04:06:30 10° ESE visible
08 May -1.2 01:40:15 17° ENE 01:40:15 17° ENE 01:41:10 10° ENE visible
08 May -3.0 03:13:10 22° NW 03:15:03 53° NNE 03:18:22 10° E visible
08 May -3.4 04:48:36 10° WNW 04:51:49 43° SSW 04:55:00 10° SE visible
08 May -2.6 23:09:40 10° SW 23:11:31 29° SSW 23:11:31 29° SSW visible
09 May-0.100:54:30ENE00:54:30ENE00:44:46Wvisible
09 May -2.5 02:27:29 41° NE 02:27:29 41° NE 02:30:10 10° E visible
09 May -3.9 04:00:28 10° WNW 04:03:49 65° SSW 04:07:08 10° SE visible
09 May -3.2 22:21:52 10° SSW 22:24:57 35° SE 22:28:03 10° ENE visible
